Bolton Field, OH

5:47 AM EST on February 24, 2018 (GMT -0500)
Bolton

Weather History for KTZR - February, 2013

Change the Weather History Date:

Friday, February 8, 2013

  Actual Average Record
Temperature  
Mean Temperature 34 °F -  
Max Temperature 40 °F 39 °F 62 °F (2001)
Min Temperature 27 °F 25 °F 0 °F (2014)
Degree Days  
Heating Degree Days 32    
Moisture  
Dew Point 29 °F    
Average Humidity 81    
Maximum Humidity 97    
Minimum Humidity 68    
Precipitation  
Precipitation 0.11 in - - ()
Sea Level Pressure  
Sea Level Pressure 29.98 in    
Wind  
Wind Speed 11 mph (West)    
Max Wind Speed 21 mph    
Max Gust Speed 30 mph    
Visibility 9 miles    
Events Rain    
Averages and records for this station are not official NWS values.
T = Trace of Precipitation, MM = Missing Value Source: NWS Daily Summary

Daily Weather History Graph

Daily Weather History Graph

Search for Another Location

Airport or City:

Trip Planner

Search our weather history database for the weather conditions in past years. The results will help you decide how hot, cold, wet, or windy it might be!

Date:

Astronomy

Feb. 08, 2013 Rise Set
Actual Time 7:33 AM EST 6:00 PM EST
Civil Twilight 7:05 AM EST 6:28 PM EST
Nautical Twilight 6:33 AM EST 7:00 PM EST
Astronomical Twilight 6:01 AM EST 7:32 PM EST
Moon 6:01 AM EST (2/8) 4:32 PM EST (2/8)
Length of Visible Light 11h 23m
Length of Day
10h 27m
Waning Crescent, 3% of the Moon is Illuminated
Feb 8
Waning Crescent
Feb 10
New
Feb 17
First Quarter
Feb 25
Full
Mar 4
Last Quarter

Hourly Weather History & Observations

Time (EST) Temp. Windchill Dew Point Humidity Pressure Visibility Wind Dir Wind Speed Gust Speed Precip Events Conditions
12:15 AM 38.8 °F 33.8 °F 32.2 °F 77% 29.82 in 10.0 mi SSE 6.9 mph - N/A   Clear
12:35 AM 38.8 °F 32.6 °F 32.4 °F 78% 29.82 in 10.0 mi SSE 9.2 mph - N/A   Scattered Clouds
12:55 AM 38.7 °F 31.8 °F 32.5 °F 79% 29.81 in 10.0 mi SSE 10.4 mph - N/A   Mostly Cloudy
1:15 AM 39.2 °F 32.5 °F 32.9 °F 78% 29.81 in 10.0 mi SSE 10.4 mph - N/A   Overcast
1:35 AM 39.4 °F 33.2 °F 32.9 °F 78% 29.80 in 10.0 mi SSE 9.2 mph - N/A   Overcast
1:55 AM 40.1 °F 34.1 °F 33.1 °F 76% 29.79 in 10.0 mi SSE 9.2 mph - N/A   Overcast
2:15 AM 40.5 °F 34.6 °F 33.3 °F 75% 29.79 in 10.0 mi South 9.2 mph - N/A   Overcast
2:35 AM 40.1 °F 34.1 °F 33.1 °F 76% 29.79 in 10.0 mi South 9.2 mph - N/A   Overcast
2:55 AM 40.3 °F 34.9 °F 33.4 °F 77% 29.79 in 10.0 mi South 8.1 mph - N/A   Overcast
3:15 AM 40.1 °F 35.3 °F 33.8 °F 78% 29.79 in 10.0 mi South 6.9 mph - N/A   Overcast
3:35 AM 40.3 °F 35.5 °F 33.8 °F 78% 29.78 in 10.0 mi South 6.9 mph - N/A   Overcast
3:55 AM 40.6 °F 35.4 °F 34.7 °F 79% 29.77 in 10.0 mi South 8.1 mph - N/A Rain Light Rain
4:35 AM 38.7 °F 35.2 °F 36.1 °F 91% 29.78 in 7.0 mi SW 4.6 mph - 0.01 in Rain Light Rain
4:55 AM 38.7 °F 34.3 °F 37.0 °F 94% 29.78 in 7.0 mi SSW 5.8 mph - 0.02 in Rain Rain
5:15 AM 39.4 °F 34.5 °F 38.5 °F 97% 29.79 in 4.0 mi WSW 6.9 mph - 0.04 in Rain Rain
5:35 AM 40.3 °F 32.2 °F 39.6 °F 97% 29.80 in 7.0 mi West 15.0 mph 20.7 mph 0.06 in Rain Light Rain
5:55 AM 39.6 °F 33.5 °F 38.1 °F 95% 29.81 in 7.0 mi West 9.2 mph - 0.07 in Rain Light Rain
6:15 AM 38.8 °F 32.6 °F 37.4 °F 95% 29.81 in 10.0 mi West 9.2 mph 16.1 mph 0.02 in Rain Light Rain
6:35 AM 37.6 °F 28.4 °F 36.1 °F 95% 29.82 in 10.0 mi West 16.1 mph 20.7 mph 0.02 in Rain Light Rain
7:15 AM 36.5 °F 27.4 °F 35.2 °F 95% 29.84 in 3.0 mi WNW 15.0 mph 20.7 mph N/A   Overcast
7:50 AM 35.6 °F 24.5 °F 33.8 °F 93% 29.87 in 2.0 mi WNW 20.7 mph 27.6 mph N/A   Overcast
8:50 AM 35.6 °F 26.2 °F 33.8 °F 93% 29.90 in 2.5 mi West 15.0 mph 21.9 mph N/A   Overcast
10:45 AM 33.8 °F 22.5 °F 30.2 °F 87% 29.97 in 4.0 mi WNW 19.6 mph 29.9 mph N/A   Overcast
11:50 AM 33.8 °F 23.9 °F 26.6 °F 75% 30.01 in 7.0 mi WNW 15.0 mph 28.8 mph N/A   Overcast
12:50 PM 32.0 °F 20.5 °F 26.6 °F 80% 30.03 in 7.0 mi NW 18.4 mph 28.8 mph N/A   Overcast
1:50 PM 32.0 °F 20.8 °F 26.6 °F 80% 30.05 in 7.0 mi WNW 17.3 mph 25.3 mph N/A   Overcast
2:50 PM 32.0 °F 20.8 °F 26.6 °F 80% 30.06 in 10.0 mi WNW 17.3 mph - N/A   Overcast
4:50 PM 32.0 °F 21.6 °F 26.6 °F 80% 30.13 in 10.0 mi NW 15.0 mph 20.7 mph N/A   Overcast
8:15 PM 28.4 °F 16.6 °F 21.4 °F 75% 30.25 in 10.0 mi NNW 16.1 mph 23.0 mph N/A   Overcast
8:35 PM 28.4 °F 17.5 °F 21.6 °F 76% 30.26 in 10.0 mi NNW 13.8 mph 19.6 mph N/A   Overcast
8:55 PM 28.0 °F 16.1 °F 21.6 °F 77% 30.27 in 10.0 mi NW 16.1 mph 20.7 mph N/A   Overcast
9:15 PM 28.0 °F 15.3 °F 21.2 °F 76% 30.27 in 10.0 mi NNW 18.4 mph 21.9 mph N/A   Overcast
9:35 PM 28.0 °F 17.5 °F 21.0 °F 75% 30.28 in 10.0 mi NNW 12.7 mph - N/A   Overcast
9:55 PM 28.0 °F 16.5 °F 20.3 °F 73% 30.28 in 10.0 mi NW 15.0 mph - N/A   Overcast
10:15 PM 28.0 °F 16.1 °F 20.1 °F 72% 30.30 in 10.0 mi NW 16.1 mph - N/A   Overcast
10:55 PM 27.9 °F 18.4 °F 19.0 °F 69% 30.29 in 10.0 mi NNW 10.4 mph - N/A   Overcast
11:15 PM 27.9 °F 17.3 °F 19.6 °F 71% 30.30 in 10.0 mi NW 12.7 mph - N/A   Overcast
11:35 PM 27.5 °F 18.0 °F 19.0 °F 71% 30.30 in 10.0 mi NNW 10.4 mph - N/A   Overcast
11:55 PM 27.5 °F 18.6 °F 18.3 °F 68% 30.30 in 10.0 mi NNW 9.2 mph - N/A   Overcast